Baudette, MN

12:10 AM CDT on September 26, 2016 (GMT -0500)
Baudette International

Weather History for KBDE - October, 2012

Change the Weather History Date:

Friday, October 26, 2012

  Actual Average Record
Temperature  
Mean Temperature 28 °F -  
Max Temperature 33 °F 53 °F 76 °F (1989)
Min Temperature 23 °F 30 °F -8 °F (1936)
Degree Days  
Heating Degree Days 37    
Moisture  
Dew Point 23 °F    
Average Humidity 73    
Maximum Humidity 85    
Minimum Humidity 59    
Precipitation  
Precipitation 0.00 in - - ()
Sea Level Pressure  
Sea Level Pressure 30.13 in    
Wind  
Wind Speed 9 mph (West)    
Max Wind Speed 14 mph    
Max Gust Speed 26 mph    
Visibility 10 miles    
Events      
Averages and records for this station are not official NWS values.
T = Trace of Precipitation, MM = Missing Value Source: NWS Daily Summary

Daily Weather History Graph

Daily Weather History Graph

Search for Another Location

Airport or City:

Trip Planner

Search our weather history database for the weather conditions in past years. The results will help you decide how hot, cold, wet, or windy it might be!

Date:

Astronomy

Oct. 26, 2012 Rise Set
Actual Time 7:56 AM CDT 6:07 PM CDT
Civil Twilight 7:23 AM CDT 6:39 PM CDT
Nautical Twilight 6:46 AM CDT 7:16 PM CDT
Astronomical Twilight 6:10 AM CDT 7:53 PM CDT
Moon 4:33 PM CDT 4:41 AM CDT
Length of Visible Light 11h 16m
Length of Day
10h 11m
Waxing Gibbous, 91% of the Moon is Illuminated
Oct 26
Waxing Gibbous
Oct 29
Full
Nov 6
Last Quarter
Nov 13
New
Nov 20
First Quarter

Hourly Weather History & Observations

Time (CDT) Temp. Windchill Dew Point Humidity Pressure Visibility Wind Dir Wind Speed Gust Speed Precip Events Conditions
12:53 AM 33.1 °F 25.5 °F 28.9 °F 85% 29.96 in 10.0 mi West 9.2 mph - 0.00 in   Overcast
1:06 AM 33.8 °F 25.8 °F 28.4 °F 81% 29.92 in 10.0 mi West 10.4 mph 19.6 mph N/A   Overcast
1:53 AM 33.1 °F 25.5 °F 28.9 °F 85% 29.98 in 10.0 mi West 9.2 mph 24.2 mph N/A   Overcast
2:53 AM 33.1 °F 24.9 °F 27.0 °F 78% 30.01 in 10.0 mi West 10.4 mph 24.2 mph N/A   Overcast
3:26 AM 32.0 °F 23.6 °F 26.6 °F 80% 29.98 in 10.0 mi West 10.4 mph 21.9 mph N/A   Mostly Cloudy
3:38 AM 32.0 °F 23.6 °F 26.6 °F 80% 29.98 in 10.0 mi West 10.4 mph 24.2 mph N/A   Mostly Cloudy
3:53 AM 32.0 °F 23.6 °F 26.1 °F 79% 30.03 in 10.0 mi West 10.4 mph 20.7 mph N/A   Overcast
4:53 AM 32.0 °F 22.1 °F 25.0 °F 75% 30.05 in 10.0 mi West 13.8 mph 25.3 mph N/A   Overcast
5:53 AM 32.0 °F 24.2 °F 24.8 °F 75% 30.02 in 10.0 mi West 9.2 mph 19.6 mph N/A   Overcast
6:53 AM 32.0 °F 24.2 °F 25.0 °F 75% 30.09 in 10.0 mi West 9.2 mph 26.5 mph 0.00 in   Overcast
7:53 AM 30.2 °F 22.6 °F 24.8 °F 80% 30.06 in 10.0 mi West 8.1 mph 20.7 mph N/A   Overcast
8:53 AM 30.9 °F 22.2 °F 23.0 °F 72% 30.13 in 10.0 mi West 10.4 mph 19.6 mph N/A   Overcast
9:53 AM 30.9 °F 22.2 °F 23.0 °F 72% 30.15 in 10.0 mi West 10.4 mph 16.1 mph N/A   Overcast
10:53 AM 32.0 °F 23.6 °F 21.0 °F 64% 30.17 in 10.0 mi West 10.4 mph 18.4 mph N/A   Overcast
11:53 AM 32.0 °F 23.0 °F 21.0 °F 64% 30.19 in 10.0 mi West 11.5 mph 20.7 mph N/A   Overcast
12:39 PM 32.0 °F 22.5 °F 21.2 °F 64% 30.15 in 10.0 mi WNW 12.7 mph 19.6 mph N/A   Overcast
12:53 PM 32.0 °F 24.8 °F 21.0 °F 64% 30.19 in 10.0 mi West 8.1 mph 17.3 mph N/A   Overcast
1:13 PM 32.0 °F 24.2 °F 21.2 °F 64% 30.15 in 10.0 mi West 9.2 mph 18.4 mph N/A   Overcast
1:53 PM 33.1 °F 25.5 °F 19.9 °F 59% 30.20 in 10.0 mi West 9.2 mph 17.3 mph N/A   Overcast
2:53 PM 32.0 °F 24.8 °F 19.9 °F 61% 30.20 in 10.0 mi West 8.1 mph - N/A   Overcast
3:53 PM 32.0 °F 24.8 °F 19.0 °F 59% 30.22 in 10.0 mi West 8.1 mph 18.4 mph N/A   Overcast
4:53 PM 30.9 °F 22.2 °F 19.0 °F 61% 30.23 in 10.0 mi West 10.4 mph 19.6 mph 0.00 in   Overcast
5:53 PM 30.9 °F 23.5 °F 19.0 °F 61% 30.23 in 10.0 mi West 8.1 mph - 0.00 in   Overcast
6:53 PM 30.0 °F 24.1 °F 21.9 °F 72% 30.25 in 9.0 mi West 5.8 mph - 0.00 in   Overcast
7:53 PM 28.0 °F 21.7 °F 21.9 °F 78% 30.25 in 10.0 mi SW 5.8 mph - N/A   Clear
8:53 PM 26.1 °F 19.4 °F 21.0 °F 81% 30.25 in 10.0 mi WSW 5.8 mph - N/A   Clear
9:53 PM 23.0 °F 15.8 °F 19.0 °F 85% 30.25 in 10.0 mi SW 5.8 mph - N/A   Clear
10:53 PM 24.1 °F 17.0 °F 19.0 °F 81% 30.25 in 10.0 mi SW 5.8 mph - N/A   Clear
11:53 PM 26.1 °F 17.6 °F 19.9 °F 78% 30.24 in 10.0 mi SW 8.1 mph - N/A   Overcast